Temperature
14 14 14 14 14 14 14 14 14 14 14 14 14 14 14 14 14 14 14 14 14 14 14 14 14 15 15 15 15 15 15 15 15 15 15 15 15 15 15 15 14 15 15
14 14 14 14 14 14 14 14 14 14 14 14 14 14 14 14 14 14 14 14 14 14 14 14 14 14 15 15 15 15 15 15 15 15 14 14 14 14 14 14 14 14 14
14 14 14 14 14 14 14 14 14 14 14 14 14 14 14 14 14 14 14 14 14 14 14 14 14 14 14 14 14 14 14 14 14 14 14 14 14 14 14 14 14 14 14
14 14 14 14 14 14 14 14 14 14 14 14 14 14 14 14 14 14 13 13 14 14 14 14 13 14 14 14 14 14 14 14 14 14 13 13 13 13 14 14 14 14 14
13 13 13 14 14 14 14 13 13 14 14 14 14 14 14 14 13 13 13 13 13 13 13 13 13 13 13 13 14 14 14 14 14 13 13 13 13 13 13 13 13 13 13
13 13 13 13 13 13 13 13 13 13 13 13 13 13 13 13 13 13 13 13 13 13 13 13 13 13 13 13 13 13 13 13 13 13 13 13 13 13 13 13 13 13 13
13 13 13 13 13 13 13 13 13 13 13 13 13 13 13 13 13 13 13 13 13 13 12 12 13 13 13 13 13 13 13 13 13 12 12 12 12 12 12 13 13 13 13
12 13 13 13 13 13 13 13 13 13 13 13 13 13 13 13 13 13 13 13 12 12 12 12 12 12 13 13 13 12 12 12 12 12 12 12 12 12 12 12 12 12 12
12 12 12 12 12 13 13 13 13 13 13 13 13 13 13 13 13 12 12 12 12 12 12 12 12 12 12 12 12 12 12 12 12 12 11 12 12 12 12 12 12 12 12
12 12 12 12 12 12 12 12 12 12 12 12 12 12 12 12 12 12 12 12 12 12 12 12 12 12 12 12 12 12 12 11 11 11 11 11 11 11 11 11 11 11 11
12 12 12 12 12 12 12 12 12 12 12 12 12 12 12 12 12 12 11 12 12 12 12 12 11 11 12 11 11 11 11 11 11 11 10 10 11 11 11 11 11 11 11
11 11 11 11 11 11 11 11 11 11 11 12 12 12 11 11 11 11 11 11 11 11 11 11 11 11 11 11 11 11 10 10 10 10 10 10 10 10 10 10 11 11 11
10 11 11 11 11 11 11 11 11 11 11 11 11 11 11 11 11 11 11 11 11 11 11 11 10 10 10 10 10 10 10 10 10 10 10 10 10 10 10 10 10 10 10
10 10 10 10 10 10 10 11 11 11 11 11 11 11 11 11 10 10 10 10 10 10 10 10 10 10 10 10 10 10 9 10 9 9 9 9 9 9 9 9 9 10 10
9 10 10 10 10 10 10 10 10 10 10 10 10 10 10 10 10 10 10 10 10 10 9 9 9 9 9 9 9 9 9 9 9 9 9 9 9 9 9 9 9 9 9
9 9 9 9 10 10 10 9 10 10 10 10 10 10 10 10 10 10 10 9 9 9 9 9 9 9 9 9 9 8 8 8 8 8 8 8 9 9 9 8 8 8 8
8 9 9 9 9 9 9 9 9 9 9 9 9 9 9 9 9 9 9 9 9 9 9 9 8 8 8 8 8 8 8 8 8 8 8 8 8 8 8 8 8 8 8
8 8 8 8 8 8 9 9 9 9 8 9 9 9 9 9 9 9 9 9 8 8 8 8 8 8 8 8 8 8 8 8 8 7 7 8 8 7 8 8 8 8 8
8 8 8 8 8 8 8 8 8 8 8 8 8 8 8 8 8 8 8 8 8 8 8 7 7 7 7 7 7 7 7 7 7 7 7 7 7 7 7 7 7 7 7
7 7 7 7 7 7 7 7 7 7 7 7 7 7 8 8 8 8 8 8 7 7 7 7 7 7 7 7 7 7 7 7 7 7 7 7 7 7 7 7 7 7 7
6 7 7 7 7 7 7 7 7 7 7 7 7 7 7 7 7 7 7 7 7 7 7 7 6 6 6 6 6 6 6 6 6 6 6 6 6 6 6 6 6 6 6
6 6 6 6 6 6 6 6 6 6 6 6 6 6 6 6 6 6 6 6 6 6 6 6 6 6 5 5 5 5 4 5 5 6 6 6 6 6 6 6 6 6 6
5 6 6 6 6 6 6 6 6 6 6 6 6 6 6 6 6 6 6 6 6 6 6 6 5 5 5 5 5 5 4 5 4 5 5 5 5 5 5 5 5 5 5
5 5 5 5 5 5 5 5 5 5 5 5 5 5 5 5 5 5 5 5 5 5 5 5 5 5 5 4 4 5 5 4 4 4 4 4 5 5 5 5 5 5 5
4 4 4 4 4 4 4 4 5 5 5 5 5 5 5 5 4 4 5 5 5 5 5 5 5 5 4 4 4 4 4 4 4 4 3 4 4 4 4 4 4 4 4
3 3 3 4 4 4 4 4 4 4 4 4 4 4 4 4 4 4 4 4 4 4 4 4 4 4 4 4 4 4 4 4 4 4 3 3 3 4 4 4 4 4 4
Wind_Speed
6 7 8 8 11 12 12 12 12 12 12 13 13 14 14 14 13 14 14 15 15 15 16 17 17 18 18 18 19 19 19 19 19 19 19 19 19 19 19 18 17 19 20
8 9 9 9 11 13 13 13 12 12 13 13 13 13 14 14 14 14 14 15 15 16 16 16 17 18 19 19 19 19 19 19 18 18 18 19 19 19 19 19 18 18 19
9 10 10 10 12 13 13 13 13 13 13 13 13 13 13 13 14 14 14 15 15 16 16 16 17 18 18 19 19 18 18 18 17 15 15 16 17 18 19 19 19 19 19
9 10 10 11 12 12 13 13 13 12 13 13 13 13 13 13 13 14 14 15 15 15 16 16 17 17 18 18 18 18 17 16 14 12 13 15 15 17 18 18 19 19 19
9 9 10 12 13 12 13 13 13 12 12 13 13 13 13 13 13 14 14 14 15 15 15 16 17 17 17 17 17 17 16 15 13 13 14 14 15 17 18 18 18 18 18
9 9 10 12 13 13 13 13 13 13 12 12 13 13 13 13 13 14 14 14 14 15 15 16 16 16 17 17 16 16 15 13 12 13 13 14 14 16 17 17 18 18 18
9 9 11 12 13 13 13 13 12 12 12 12 13 13 12 13 13 13 13 14 14 15 15 15 16 16 16 16 16 15 14 12 12 13 12 13 14 16 16 16 17 17 17
8 8 10 12 13 13 12 12 12 11 12 12 12 13 12 12 13 13 13 13 14 14 15 15 15 15 16 16 15 14 13 12 12 12 12 13 14 15 15 15 15 16 16
7 7 9 10 11 12 12 12 12 12 11 11 12 12 12 12 12 12 13 13 13 14 14 14 14 15 15 15 14 13 13 12 12 11 11 11 13 13 14 14 14 14 15
6 6 7 8 9 10 11 12 13 12 12 11 12 12 12 11 11 12 13 13 13 14 14 14 14 14 14 14 13 12 11 10 11 10 10 11 12 12 13 13 13 13 13
5 5 6 7 8 8 9 10 11 11 11 11 10 11 10 9 9 10 12 13 13 14 14 14 13 13 13 12 12 10 8 8 9 9 9 11 11 12 12 12 11 12 12
5 4 4 6 7 7 8 8 8 8 8 8 8 8 7 7 7 9 12 13 13 13 13 13 12 11 9 9 9 7 7 8 8 8 9 11 11 11 11 11 11 11 11
5 4 4 4 6 7 6 6 6 5 5 6 7 7 7 7 6 7 8 9 10 10 9 9 8 7 7 7 6 6 6 7 7 8 9 10 10 10 11 10 10 11 11
5 4 4 4 5 6 6 5 5 5 4 4 5 6 6 5 5 5 5 6 6 6 6 6 6 6 7 7 7 6 6 6 6 7 9 10 9 10 10 10 10 10 11
4 3 4 4 4 5 5 4 4 4 4 5 4 5 5 5 5 5 5 5 6 6 6 6 6 6 6 6 6 6 6 6 6 6 7 9 9 9 9 10 10 9 10
3 3 3 3 4 5 4 4 4 4 4 5 4 5 5 5 5 5 5 4 5 5 6 6 6 6 5 5 5 5 5 5 5 5 5 7 8 9 9 9 9 10 10
3 2 3 3 3 4 5 4 4 4 5 4 4 5 5 5 5 5 5 4 4 6 6 6 6 6 5 5 5 5 5 5 4 5 4 4 6 7 8 8 8 8 8
3 3 2 2 3 3 3 4 3 4 5 4 4 4 5 5 5 5 5 4 5 6 5 5 5 4 4 4 3 3 4 4 4 4 4 4 4 4 6 7 7 8 7
3 3 3 2 3 3 3 4 4 4 4 4 4 4 5 5 5 5 5 5 6 5 5 5 4 4 4 4 3 3 3 3 3 3 3 4 3 3 3 5 7 7 7
2 3 3 3 2 2 3 3 4 4 3 3 4 4 5 5 5 5 5 6 6 5 5 5 5 4 4 4 4 3 2 2 2 2 2 2 3 3 3 3 4 5 6
1 2 2 3 2 3 3 3 3 3 3 3 3 4 5 5 6 5 5 6 6 6 6 7 5 6 4 4 3 2 1 1 1 1 1 1 2 2 2 2 2 3 3
2 2 3 3 3 3 3 3 3 3 3 3 3 4 4 5 5 5 6 6 6 6 7 7 7 4 3 4 3 3 2 2 1 0 0 0 1 1 1 2 2 2 2
3 3 2 3 3 3 3 2 2 2 2 2 3 3 4 5 5 5 7 7 7 7 7 8 8 6 5 4 3 3 3 3 2 1 1 1 1 1 1 2 2 2 2
3 3 3 2 2 3 3 3 5 4 4 4 4 3 4 5 5 5 5 7 7 6 7 7 7 6 7 6 4 2 2 2 3 2 2 2 1 2 2 2 2 2 2
3 3 2 2 2 2 3 3 4 4 3 3 3 4 4 4 5 6 5 6 6 6 7 8 7 7 6 6 5 4 3 3 3 3 3 3 2 2 2 2 3 3 3
2 2 2 2 2 2 2 3 3 4 3 3 4 4 4 4 4 6 6 6 7 6 7 7 7 8 7 7 6 5 5 4 4 4 4 4 4 3 3 3 3 4 4
Wind_Direction
163 159 156 154 146 140 136 131 127 121 118 114 111 108 105 104 101 99 97 94 91 89 88 87 86 86 88 88 88 87 85 84 83 82 81 81 81 81 80 79 82 82 81
158 157 151 150 146 143 139 134 129 123 120 116 114 111 108 106 103 100 98 95 92 90 89 89 88 89 88 88 88 87 85 83 82 81 82 82 80 80 79 76 77 83 83
150 152 150 147 145 145 141 135 129 125 122 118 116 113 110 107 104 102 99 97 94 92 91 91 89 90 89 88 87 86 85 83 81 82 86 86 83 81 81 81 82 84 84
148 148 146 143 141 141 140 134 130 126 123 119 117 113 111 109 106 104 101 98 97 95 93 93 92 91 91 89 88 86 84 81 78 82 84 85 85 82 82 82 83 84 84
148 147 141 140 137 136 138 136 133 129 126 122 119 115 111 109 106 104 102 100 99 97 96 95 94 93 92 91 90 88 85 81 77 80 82 82 83 83 82 82 82 82 83
147 145 140 139 135 132 129 134 135 132 128 125 122 118 114 110 107 104 103 102 101 100 98 96 95 96 94 91 90 88 84 81 84 82 82 82 84 84 82 81 82 82 82
145 143 141 137 135 132 131 128 130 132 131 128 125 120 117 114 111 108 105 103 103 103 101 100 97 97 97 94 91 87 82 77 82 82 81 81 83 84 83 81 81 81 81
138 137 141 137 129 128 127 126 124 125 129 130 127 124 121 117 114 112 109 107 106 104 102 102 100 99 98 96 92 87 81 82 84 82 81 81 82 83 84 83 80 80 82
128 127 126 133 134 130 127 125 122 119 119 125 127 125 122 118 116 114 111 109 108 106 104 102 102 101 100 98 94 88 81 79 85 83 81 81 84 84 84 84 84 83 82
119 121 121 127 129 130 129 123 118 116 113 112 116 118 116 116 115 114 113 110 110 108 106 104 103 102 100 98 95 90 87 87 86 84 80 83 86 86 85 84 86 86 84
119 118 122 125 126 129 130 123 116 111 109 108 112 116 122 125 122 119 111 109 109 107 107 105 103 100 100 96 92 91 91 90 87 81 81 85 87 88 86 85 88 89 87
145 136 124 125 124 122 118 118 116 115 117 115 117 126 130 128 122 118 111 107 107 105 105 104 104 104 104 102 95 92 91 90 86 82 82 87 91 92 90 89 89 91 90
157 142 132 126 125 121 115 117 117 117 119 120 119 119 127 126 125 124 124 120 116 112 109 108 107 104 102 100 98 91 91 88 86 84 83 88 93 95 92 92 93 94 93
156 151 146 131 125 124 121 121 123 120 125 123 127 126 128 130 134 129 125 129 126 121 118 113 104 105 102 100 99 97 94 91 90 89 81 83 91 95 95 94 95 96 95
155 158 157 139 139 133 127 125 128 132 135 132 133 138 135 140 142 135 129 130 131 128 128 120 115 110 104 99 99 101 99 94 92 92 87 78 84 91 94 96 97 99 97
159 172 159 151 149 141 139 140 139 139 137 140 141 145 145 144 144 140 133 131 129 129 126 124 123 115 106 103 101 100 98 94 86 89 94 87 80 81 88 94 98 97 96
178 172 172 167 150 152 153 146 142 141 144 145 145 146 147 140 149 147 140 136 130 129 127 123 120 113 108 108 105 99 94 92 92 85 85 87 89 82 81 85 92 96 98
177 172 166 166 157 153 149 145 144 150 150 146 145 146 146 140 151 149 146 141 141 137 135 135 133 123 120 119 111 98 93 89 84 83 82 82 81 83 86 86 82 81 87
184 174 169 158 159 161 151 150 145 148 151 148 147 150 147 151 148 153 150 147 149 144 140 140 140 137 133 124 112 98 89 90 84 88 87 80 76 78 85 92 90 81 77
193 172 165 158 147 150 152 144 143 145 148 150 151 156 156 159 156 156 152 154 154 151 150 150 144 138 137 131 116 94 76 77 84 89 91 88 85 84 94 102 104 98 86
185 166 164 161 151 146 158 168 168 174 171 167 162 165 168 168 167 161 162 162 166 166 163 157 147 144 142 144 138 118 83 79 93 82 99 110 94 89 106 119 116 117 114
194 181 180 181 167 165 180 186 185 177 186 176 163 165 173 173 175 175 176 172 174 170 165 164 159 155 159 172 170 164 175 191 200 283 124 144 162 122 111 122 131 133 138
211 206 196 196 188 182 180 167 149 154 163 178 182 185 186 183 178 188 188 179 179 178 176 175 176 173 175 185 195 189 189 201 182 193 227 227 225 208 187 156 150 155 161
222 215 199 192 187 191 179 175 176 187 194 205 200 200 195 192 190 191 194 189 184 181 182 181 181 182 181 186 196 213 230 173 186 186 204 223 242 248 237 204 190 185 184
220 212 201 190 180 184 193 185 183 193 205 202 200 202 201 196 197 193 193 192 187 187 188 188 186 187 191 195 193 190 191 190 209 206 212 216 228 246 251 237 215 203 199
210 205 197 194 193 190 193 198 196 190 194 200 205 203 209 210 201 200 198 197 194 192 194 195 193 195 198 199 198 197 197 195 198 204 215 218 228 245 252 249 229 213 206
Height
1528 1530 1532 1535 1536 1538 1539 1540 1541 1542 1542 1543 1543 1543 1544 1544 1544 1545 1545 1545 1545 1545 1545 1545 1544 1544 1545 1545 1546 1546 1546 1547 1547 1548 1548 1548 1548 1548 1549 1549 1549 1549 1549
1528 1530 1532 1534 1537 1538 1540 1541 1542 1542 1543 1544 1544 1545 1545 1545 1546 1546 1546 1546 1546 1546 1546 1546 1546 1547 1547 1547 1548 1548 1549 1549 1549 1550 1550 1551 1551 1551 1551 1551 1551 1551 1552
1528 1530 1532 1534 1537 1538 1540 1541 1542 1543 1544 1545 1545 1546 1546 1547 1547 1547 1547 1547 1548 1548 1548 1548 1548 1548 1548 1549 1550 1550 1550 1551 1552 1552 1553 1553 1553 1553 1553 1554 1554 1554 1554
1528 1530 1532 1534 1536 1538 1540 1542 1543 1544 1545 1545 1546 1547 1547 1548 1548 1548 1549 1549 1549 1549 1549 1549 1549 1550 1550 1551 1551 1552 1552 1553 1554 1554 1555 1555 1556 1556 1556 1556 1556 1556 1556
1528 1530 1532 1534 1536 1538 1540 1542 1543 1544 1545 1546 1547 1548 1548 1549 1549 1549 1550 1550 1550 1551 1551 1551 1551 1551 1552 1552 1553 1554 1554 1555 1555 1556 1556 1557 1557 1558 1558 1558 1558 1558 1558
1528 1530 1532 1534 1536 1538 1540 1541 1543 1544 1545 1546 1547 1548 1549 1550 1550 1550 1551 1551 1552 1552 1552 1552 1552 1553 1553 1554 1554 1555 1556 1556 1557 1558 1558 1559 1559 1560 1560 1560 1560 1560 1560
1528 1530 1532 1534 1536 1538 1540 1541 1543 1544 1545 1546 1548 1549 1550 1550 1551 1551 1552 1552 1553 1553 1553 1553 1554 1554 1554 1555 1556 1556 1557 1558 1559 1559 1560 1560 1561 1561 1562 1562 1562 1562 1562
1528 1530 1532 1534 1536 1537 1539 1541 1543 1544 1545 1547 1548 1549 1550 1551 1551 1552 1552 1553 1554 1554 1554 1555 1555 1555 1556 1556 1557 1558 1558 1559 1560 1560 1561 1562 1562 1563 1563 1563 1563 1563 1563
1527 1529 1531 1533 1535 1537 1539 1541 1542 1544 1545 1546 1547 1549 1550 1551 1551 1552 1553 1553 1554 1554 1555 1555 1556 1556 1557 1557 1558 1559 1559 1560 1561 1561 1562 1562 1563 1564 1564 1564 1564 1564 1565
1527 1529 1530 1532 1534 1536 1538 1540 1542 1543 1544 1546 1547 1548 1549 1550 1551 1552 1553 1553 1554 1554 1555 1556 1557 1557 1558 1558 1559 1560 1560 1561 1562 1563 1563 1563 1564 1564 1564 1565 1565 1565 1565
1526 1527 1529 1531 1533 1535 1537 1539 1541 1542 1544 1545 1546 1547 1549 1550 1551 1552 1553 1553 1554 1554 1555 1556 1557 1557 1558 1559 1560 1560 1561 1562 1562 1563 1563 1564 1564 1564 1565 1565 1565 1566 1566
1524 1526 1528 1530 1531 1534 1536 1538 1539 1541 1543 1544 1545 1547 1548 1549 1550 1551 1552 1553 1553 1554 1555 1556 1557 1557 1558 1559 1560 1561 1561 1562 1563 1563 1564 1564 1565 1565 1565 1565 1565 1566 1566
1523 1524 1526 1528 1530 1532 1534 1536 1538 1540 1541 1543 1544 1545 1547 1548 1549 1550 1551 1552 1553 1554 1555 1556 1556 1557 1558 1559 1560 1561 1561 1562 1563 1563 1563 1564 1565 1565 1565 1565 1565 1566 1566
1521 1523 1525 1526 1528 1530 1532 1534 1536 1538 1539 1541 1542 1544 1545 1546 1548 1549 1550 1551 1552 1553 1554 1555 1556 1557 1558 1559 1560 1560 1561 1562 1562 1563 1563 1564 1565 1565 1565 1565 1565 1566 1566
1519 1521 1522 1524 1526 1528 1530 1532 1534 1536 1537 1539 1540 1542 1543 1545 1546 1547 1549 1550 1551 1552 1553 1554 1555 1556 1557 1558 1559 1560 1561 1561 1562 1563 1563 1564 1565 1565 1565 1565 1566 1566 1566
1516 1518 1520 1522 1524 1526 1528 1530 1532 1533 1535 1537 1539 1540 1541 1542 1544 1545 1547 1548 1549 1550 1552 1553 1554 1555 1556 1557 1558 1559 1560 1561 1562 1562 1563 1564 1564 1565 1565 1565 1566 1566 1566
1514 1516 1517 1519 1521 1523 1526 1527 1529 1531 1532 1534 1536 1537 1539 1540 1542 1543 1545 1546 1547 1549 1550 1551 1553 1554 1555 1556 1557 1558 1559 1560 1561 1562 1563 1564 1564 1564 1565 1565 1566 1566 1566
1511 1513 1515 1517 1518 1520 1523 1524 1527 1528 1530 1531 1533 1535 1536 1538 1539 1541 1542 1544 1545 1547 1548 1549 1551 1552 1554 1555 1556 1557 1558 1559 1560 1561 1562 1563 1563 1564 1565 1565 1565 1566 1566
1508 1510 1512 1513 1515 1517 1520 1522 1524 1526 1527 1528 1530 1532 1533 1535 1536 1538 1540 1541 1543 1544 1546 1547 1549 1550 1552 1553 1554 1556 1557 1558 1559 1559 1560 1561 1562 1563 1563 1564 1564 1565 1565
1506 1507 1508 1510 1512 1514 1516 1519 1520 1522 1524 1525 1527 1528 1530 1532 1533 1535 1537 1538 1540 1541 1543 1545 1546 1548 1550 1551 1553 1554 1555 1556 1557 1558 1559 1560 1560 1561 1562 1563 1563 1564 1564
1502 1503 1504 1506 1508 1510 1512 1514 1516 1518 1520 1522 1523 1525 1527 1528 1530 1531 1533 1535 1537 1538 1540 1542 1544 1545 1547 1549 1551 1552 1553 1554 1555 1556 1557 1557 1558 1559 1560 1561 1561 1562 1562
1498 1499 1501 1502 1504 1506 1508 1510 1512 1514 1516 1518 1520 1521 1523 1525 1526 1528 1530 1531 1533 1535 1536 1538 1540 1542 1544 1546 1548 1549 1551 1553 1553 1553 1554 1555 1556 1557 1557 1558 1559 1560 1560
1495 1496 1497 1499 1500 1503 1505 1506 1508 1510 1512 1514 1515 1517 1519 1521 1522 1524 1525 1528 1529 1531 1532 1534 1537 1539 1540 1543 1545 1547 1548 1549 1550 1551 1551 1552 1553 1554 1555 1556 1556 1557 1558
1492 1493 1494 1495 1497 1499 1500 1501 1503 1505 1507 1508 1511 1513 1515 1516 1518 1520 1521 1523 1525 1527 1528 1530 1532 1535 1537 1539 1541 1543 1545 1545 1547 1547 1548 1549 1550 1551 1552 1553 1553 1554 1555
1489 1490 1491 1492 1494 1495 1496 1498 1499 1501 1503 1505 1507 1509 1510 1512 1514 1515 1517 1518 1520 1522 1524 1526 1528 1530 1532 1535 1536 1538 1540 1541 1543 1544 1544 1546 1547 1548 1548 1549 1550 1550 1551
1486 1486 1487 1488 1490 1491 1492 1494 1496 1497 1499 1501 1502 1504 1505 1507 1509 1510 1512 1514 1516 1518 1520 1522 1523 1526 1528 1530 1532 1534 1535 1537 1538 1540 1540 1541 1542 1543 1544 1545 1546 1547 1547